Lid_Strength_Index
-2 -2 -2 -2 -2 -2 -1 -1 -1 -1 -1 -1 -1 0 0 0 1 3 7 3 2 -0 2 5 4 5 4 5 5 6 7 9 9 9 8 7 7 7 6 6 4 3 4 3 2
-2 -2 -2 -2 -2 -2 -1 -1 -1 -1 -1 -1 -1 1 1 1 4 6 1 -1 -2 -1 5 6 6 5 5 6 6 6 8 8 7 7 7 7 6 6 7 7 6 5 4 2 2
-1 -1 -2 -2 -2 -2 -1 -1 -1 -1 -1 -1 0 1 1 2 7 7 -2 -1 -2 -0 4 5 5 6 6 6 7 7 8 7 8 7 7 7 7 6 7 7 6 6 5 3 3
-1 -1 -1 -1 -1 -1 -1 -1 -1 -1 -1 -1 1 1 2 4 14 6 -1 -2 -2 3 5 6 6 7 7 8 7 8 8 8 7 7 7 7 7 7 7 6 6 5 4 3 4
-1 -1 -1 -1 -1 -1 -1 -1 -1 -1 -1 -0 1 2 4 8 8 5 0 -0 3 4 5 6 7 8 8 7 7 8 8 8 8 8 7 7 8 7 7 6 7 6 4 3 3
-1 -0 -1 -1 -1 -1 -1 -1 -1 -1 -0 0 1 1 5 10 3 3 2 3 4 5 5 6 6 6 8 8 8 8 8 8 8 8 8 8 9 8 8 7 7 6 5 3 3
-1 -0 -1 -1 -1 -1 -1 -1 -0 -0 -0 -0 -1 2 5 6 2 3 3 4 4 4 6 6 6 6 7 8 8 8 9 9 9 8 9 8 10 9 8 8 8 7 6 4 3
-0 -0 -1 -1 -1 -1 -1 -1 -0 -0 -1 -0 -1 2 6 2 2 4 3 4 4 4 5 5 5 7 7 7 9 10 9 11 10 9 9 9 10 10 8 8 8 7 7 6 4
0 -1 -1 -1 -1 -1 -1 -1 0 -0 -0 -1 2 5 8 1 5 3 3 5 5 5 5 5 6 8 8 9 10 11 12 12 12 9 9 10 10 9 8 8 7 7 7 7 6
-0 -0 -1 -1 -1 -1 -1 -1 0 -0 0 1 5 6 6 5 4 4 4 4 5 5 6 6 7 9 10 10 14 13 13 13 12 10 10 10 10 9 8 8 7 7 7 7 7
-0 -1 -0 -1 -1 -1 -0 1 5 6 5 8 8 8 7 4 4 5 4 5 6 6 9 9 10 11 10 10 12 11 11 12 12 10 10 10 10 9 8 8 8 8 8 8 7
0 -1 -1 -1 -1 -1 -0 4 6 6 10 6 8 6 5 4 7 6 4 6 7 10 9 10 11 9 10 11 11 11 12 12 11 11 11 11 10 9 10 10 10 9 9 9 8
0 -1 -1 -1 -1 0 2 3 1 3 9 7 7 7 5 5 7 7 6 7 8 10 10 11 11 10 11 11 11 12 12 12 12 12 12 12 11 12 11 10 9 9 9 8 8
0 -0 -0 -1 1 1 3 0 0 2 12 11 8 7 6 6 8 5 5 7 9 10 10 10 11 11 11 11 10 13 11 11 12 12 14 12 14 12 12 10 9 9 8 8 7
1 -0 0 -1 2 3 2 -0 1 6 17 10 8 5 7 8 7 7 5 7 10 10 10 12 12 12 12 11 10 12 10 11 12 12 12 13 13 13 12 11 10 9 9 8 8
2 1 0 0 1 1 -0 0 2 11 17 12 9 10 9 9 9 7 7 7 8 9 9 10 9 10 11 11 10 11 11 11 12 12 15 13 14 13 13 11 10 10 9 8 8
3 2 1 -0 4 0 0 3 13 17 10 12 12 10 10 11 10 9 9 10 10 12 13 11 11 10 9 11 10 11 11 15 16 16 16 16 15 13 12 10 9 9 9 8 7
4 3 2 2 0 1 2 8 16 12 12 9 10 11 13 11 11 11 10 11 10 10 12 13 15 11 9 10 11 11 11 14 18 18 17 16 16 13 12 10 9 8 9 8 8
4 5 4 4 2 1 6 14 12 12 9 11 10 12 13 12 11 11 11 10 9 10 12 13 14 10 10 10 9 12 13 12 15 19 15 14 13 12 11 10 9 9 8 8 7
7 6 6 4 3 3 9 12 10 9 8 8 12 10 13 12 13 12 12 10 11 9 9 11 14 12 11 10 10 11 10 14 13 17 17 16 15 13 13 11 10 10 9 8 8
8 9 7 5 4 7 13 11 10 7 7 9 11 12 11 12 12 13 13 12 10 10 9 10 11 13 12 12 12 13 13 13 12 14 16 17 15 11 11 9 10 9 8 8 8
9 12 7 5 9 9 11 9 8 8 7 8 8 10 11 10 11 12 13 12 10 10 11 9 11 14 13 12 11 12 12 12 14 17 16 16 14 11 9 8 8 9 9 8 8
12 11 7 6 14 12 10 9 8 9 9 9 10 9 9 10 12 11 10 9 10 10 11 10 12 16 15 13 13 14 13 13 13 13 15 16 14 11 10 10 9 9 8 8 8
11 13 10 10 12 12 11 11 11 7 8 8 9 8 9 11 10 11 11 9 8 9 9 9 12 13 16 14 13 15 15 14 13 15 14 15 14 13 12 11 10 8 8 8 8
11 14 12 13 13 13 11 11 11 11 8 8 10 10 10 13 12 12 10 10 9 8 9 9 13 13 13 13 13 13 13 14 14 13 14 13 14 12 11 10 9 8 8 9 10
12 13 12 14 13 12 12 13 11 10 10 11 11 10 9 11 11 13 11 10 11 9 9 10 14 13 14 12 12 13 12 12 12 12 12 12 12 9 8 8 9 9 9 9 9
9 9 11 13 14 12 12 12 12 10 10 8 8 10 11 9 8 8 8 8 8 10 11 11 13 14 15 13 13 15 13 12 11 10 11 13 11 9 9 9 9 9 9 10 10